Time,TemperatureF,DewpointF,PressureIn,WindDirection,WindDirectionDegrees,WindSpeedMPH,WindSpeedGustMPH,Humidity,HourlyPrecipIn,Conditions,Clouds,dailyrainin,SoftwareType,DateUTC
2013-08-14 00:10:00,62.6,58.0,30.08,NNW,343,0.0,1.0,86,0.00,,,0.00,weatherlink.com 1.10,2013-08-14 05:10:00,
2013-08-14 00:25:00,61.7,58.0,30.08,NNW,343,0.0,0.0,87,0.00,,,0.00,weatherlink.com 1.10,2013-08-14 05:25:00,
2013-08-14 00:40:00,60.9,57.0,30.09,NNW,343,0.0,1.0,88,0.00,,,0.00,weatherlink.com 1.10,2013-08-14 05:40:00,
2013-08-14 00:55:00,60.3,57.0,30.09,NNW,343,0.0,0.0,89,0.00,,,0.00,weatherlink.com 1.10,2013-08-14 05:55:00,
2013-08-14 01:10:00,59.8,57.0,30.08,NNW,343,0.0,2.0,90,0.00,,,0.00,weatherlink.com 1.10,2013-08-14 06:10:00,
2013-08-14 01:25:00,59.2,56.0,30.08,NNW,343,0.0,0.0,90,0.00,,,0.00,weatherlink.com 1.10,2013-08-14 06:25:00,
2013-08-14 01:40:00,58.7,56.0,30.08,NNW,343,0.0,0.0,90,0.00,,,0.00,weatherlink.com 1.10,2013-08-14 06:40:00,
2013-08-14 01:55:00,58.2,56.0,30.09,NNW,343,0.0,0.0,91,0.00,,,0.00,weatherlink.com 1.10,2013-08-14 06:55:00,
2013-08-14 02:10:00,57.7,55.0,30.09,NNW,343,0.0,0.0,91,0.00,,,0.00,weatherlink.com 1.10,2013-08-14 07:10:00,
2013-08-14 02:25:00,57.2,55.0,30.09,NNW,343,0.0,0.0,91,0.00,,,0.00,weatherlink.com 1.10,2013-08-14 07:25:00,
2013-08-14 02:40:00,56.9,55.0,30.09,NNW,343,1.0,2.0,92,0.00,,,0.00,weatherlink.com 1.10,2013-08-14 07:40:00,
2013-08-14 02:55:00,56.7,54.0,30.09,NNW,343,0.0,0.0,91,0.00,,,0.00,weatherlink.com 1.10,2013-08-14 07:55:00,
2013-08-14 03:10:00,56.3,54.0,30.09,NNW,343,0.0,1.0,91,0.00,,,0.00,weatherlink.com 1.10,2013-08-14 08:10:00,
2013-08-14 03:25:00,55.8,54.0,30.10,NNW,343,0.0,0.0,92,0.00,,,0.00,weatherlink.com 1.10,2013-08-14 08:25:00,
2013-08-14 03:40:00,55.4,53.0,30.10,NNW,343,0.0,0.0,92,0.00,,,0.00,weatherlink.com 1.10,2013-08-14 08:40:00,
2013-08-14 03:55:00,55.1,53.0,30.10,NNW,343,0.0,0.0,93,0.00,,,0.00,weatherlink.com 1.10,2013-08-14 08:55:00,
2013-08-14 04:10:00,55.3,53.0,30.10,NNW,343,0.0,4.0,93,0.00,,,0.00,weatherlink.com 1.10,2013-08-14 09:10:00,
2013-08-14 04:25:00,55.6,53.0,30.10,NNW,343,0.0,1.0,92,0.00,,,0.00,weatherlink.com 1.10,2013-08-14 09:25:00,
2013-08-14 04:40:00,55.3,53.0,30.10,NNW,343,0.0,1.0,91,0.00,,,0.00,weatherlink.com 1.10,2013-08-14 09:40:00,
2013-08-14 04:55:00,55.0,53.0,30.11,NNW,343,0.0,1.0,91,0.00,,,0.00,weatherlink.com 1.10,2013-08-14 09:55:00,
2013-08-14 05:10:00,54.8,52.0,30.11,NNW,343,0.0,1.0,91,0.00,,,0.00,weatherlink.com 1.10,2013-08-14 10:10:00,
2013-08-14 05:25:00,54.6,52.0,30.12,NNW,343,0.0,2.0,91,0.00,,,0.00,weatherlink.com 1.10,2013-08-14 10:25:00,
2013-08-14 05:40:00,54.6,52.0,30.12,NNW,343,1.0,1.0,90,0.00,,,0.00,weatherlink.com 1.10,2013-08-14 10:40:00,
2013-08-14 05:55:00,54.5,52.0,30.13,NNW,343,0.0,2.0,90,0.00,,,0.00,weatherlink.com 1.10,2013-08-14 10:55:00,
2013-08-14 06:10:00,54.4,52.0,30.14,NNW,343,1.0,2.0,90,0.00,,,0.00,weatherlink.com 1.10,2013-08-14 11:10:00,
2013-08-14 06:25:00,54.2,51.0,30.14,NNW,343,0.0,3.0,90,0.00,,,0.00,weatherlink.com 1.10,2013-08-14 11:25:00,
2013-08-14 06:40:00,54.3,52.0,30.15,NNW,343,0.0,1.0,90,0.00,,,0.00,weatherlink.com 1.10,2013-08-14 11:40:00,
2013-08-14 06:55:00,54.5,52.0,30.16,NNW,343,0.0,3.0,90,0.00,,,0.00,weatherlink.com 1.10,2013-08-14 11:55:00,
2013-08-14 07:10:00,55.3,52.0,30.15,NNW,343,1.0,3.0,89,0.00,,,0.00,weatherlink.com 1.10,2013-08-14 12:10:00,
2013-08-14 07:25:00,56.4,53.0,30.16,NNW,333,1.0,6.0,88,0.00,,,0.00,weatherlink.com 1.10,2013-08-14 12:25:00,
2013-08-14 07:40:00,57.3,53.0,30.16,NNW,340,1.0,4.0,86,0.00,,,0.00,weatherlink.com 1.10,2013-08-14 12:40:00,
2013-08-14 07:55:00,59.0,55.0,30.16,North,355,2.0,4.0,85,0.00,,,0.00,weatherlink.com 1.10,2013-08-14 12:55:00,
2013-08-14 08:10:00,60.6,55.0,30.16,North,355,0.0,2.0,83,0.00,,,0.00,weatherlink.com 1.10,2013-08-14 13:10:00,
2013-08-14 08:26:00,61.8,56.0,30.16,South,169,0.0,4.0,81,0.00,,,0.00,weatherlink.com 1.10,2013-08-14 13:26:00,
2013-08-14 08:41:00,63.2,56.0,30.16,South,171,0.0,3.0,78,0.00,,,0.00,weatherlink.com 1.10,2013-08-14 13:41:00,
2013-08-14 08:56:00,64.3,56.0,30.17,NE,40,1.0,6.0,74,0.00,,,0.00,weatherlink.com 1.10,2013-08-14 13:56:00,
2013-08-14 09:11:00,64.4,55.0,30.16,North,360,1.0,8.0,71,0.00,,,0.00,weatherlink.com 1.10,2013-08-14 14:11:00,
2013-08-14 09:26:00,65.5,57.0,30.16,NW,320,0.0,4.0,74,0.00,,,0.00,weatherlink.com 1.10,2013-08-14 14:26:00,
2013-08-14 09:41:00,66.4,56.0,30.17,ESE,113,1.0,4.0,70,0.00,,,0.00,weatherlink.com 1.10,2013-08-14 14:41:00,
2013-08-14 09:56:00,67.3,57.0,30.17,NE,56,1.0,4.0,70,0.00,,,0.00,weatherlink.com 1.10,2013-08-14 14:56:00,
2013-08-14 10:11:00,68.6,57.0,30.16,NE,49,2.0,6.0,66,0.00,,,0.00,weatherlink.com 1.10,2013-08-14 15:11:00,
2013-08-14 10:26:00,69.2,56.0,30.16,NW,319,1.0,5.0,63,0.00,,,0.00,weatherlink.com 1.10,2013-08-14 15:26:00,
2013-08-14 10:41:00,70.0,58.0,30.16,WSW,254,3.0,4.0,65,0.00,,,0.00,weatherlink.com 1.10,2013-08-14 15:41:00,
2013-08-14 10:56:00,70.8,57.0,30.16,East,93,1.0,7.0,62,0.00,,,0.00,weatherlink.com 1.10,2013-08-14 15:56:00,
2013-08-14 11:11:00,71.5,56.0,30.16,NNE,30,3.0,5.0,59,0.00,,,0.00,weatherlink.com 1.10,2013-08-14 16:11:00,
2013-08-14 11:26:00,71.7,56.0,30.17,NE,34,2.0,7.0,59,0.00,,,0.00,weatherlink.com 1.10,2013-08-14 16:26:00,
2013-08-14 11:41:00,71.9,56.0,30.17,NNE,33,0.0,7.0,58,0.00,,,0.00,weatherlink.com 1.10,2013-08-14 16:41:00,
2013-08-14 11:56:00,72.1,56.0,30.16,North,360,0.0,11.0,58,0.00,,,0.00,weatherlink.com 1.10,2013-08-14 16:56:00,
2013-08-14 12:11:00,71.9,57.0,30.16,NNW,346,2.0,10.0,59,0.00,,,0.00,weatherlink.com 1.10,2013-08-14 17:11:00,
2013-08-14 12:26:00,73.0,58.0,30.16,ESE,107,2.0,7.0,59,0.00,,,0.00,weatherlink.com 1.10,2013-08-14 17:26:00,
2013-08-14 12:41:00,71.8,57.0,30.16,North,360,2.0,7.0,59,0.00,,,0.00,weatherlink.com 1.10,2013-08-14 17:41:00,
2013-08-14 12:57:00,72.0,58.0,30.16,North,5,3.0,11.0,62,0.00,,,0.00,weatherlink.com 1.10,2013-08-14 17:57:00,
2013-08-14 13:27:00,72.4,58.0,30.15,NNE,12,3.0,10.0,61,0.00,,,0.00,weatherlink.com 1.10,2013-08-14 18:27:00,
2013-08-14 13:42:00,73.5,58.0,30.15,NNE,13,0.0,6.0,58,0.00,,,0.00,weatherlink.com 1.10,2013-08-14 18:42:00,
2013-08-14 14:12:00,72.9,59.0,30.14,NNW,337,1.0,10.0,63,0.00,,,0.00,weatherlink.com 1.10,2013-08-14 19:12:00,
2013-08-14 14:27:00,71.5,57.0,30.14,NNW,346,2.0,8.0,60,0.00,,,0.00,weatherlink.com 1.10,2013-08-14 19:27:00,
2013-08-14 14:42:00,72.4,55.0,30.14,NNW,330,7.0,8.0,55,0.00,,,0.00,weatherlink.com 1.10,2013-08-14 19:42:00,
2013-08-14 14:57:00,71.7,57.0,30.14,North,5,2.0,5.0,61,0.00,,,0.00,weatherlink.com 1.10,2013-08-14 19:57:00,
2013-08-14 15:12:00,72.1,56.0,30.14,NNW,346,1.0,7.0,57,0.00,,,0.00,weatherlink.com 1.10,2013-08-14 20:12:00,
2013-08-14 15:27:00,71.9,58.0,30.13,ENE,66,0.0,4.0,62,0.00,,,0.00,weatherlink.com 1.10,2013-08-14 20:27:00,
2013-08-14 15:43:00,73.8,58.0,30.13,North,360,4.0,8.0,58,0.00,,,0.00,weatherlink.com 1.10,2013-08-14 20:43:00,
2013-08-14 15:57:00,73.2,57.0,30.13,WSW,239,0.0,6.0,58,0.00,,,0.00,weatherlink.com 1.10,2013-08-14 20:57:00,
2013-08-14 16:12:00,73.5,57.0,30.13,NE,36,4.0,6.0,56,0.00,,,0.00,weatherlink.com 1.10,2013-08-14 21:12:00,
2013-08-14 16:28:00,72.4,57.0,30.12,North,355,2.0,7.0,58,0.00,,,0.00,weatherlink.com 1.10,2013-08-14 21:28:00,
2013-08-14 16:43:00,72.0,56.0,30.12,North,355,4.0,10.0,57,0.00,,,0.00,weatherlink.com 1.10,2013-08-14 21:43:00,
2013-08-14 16:58:00,73.3,58.0,30.12,North,5,1.0,5.0,59,0.00,,,0.00,weatherlink.com 1.10,2013-08-14 21:58:00,
2013-08-14 17:13:00,72.4,57.0,30.12,NNW,344,4.0,6.0,58,0.00,,,0.00,weatherlink.com 1.10,2013-08-14 22:13:00,
2013-08-14 17:28:00,72.9,56.0,30.12,NNW,342,4.0,8.0,56,0.00,,,0.00,weatherlink.com 1.10,2013-08-14 22:28:00,
2013-08-14 17:43:00,72.3,57.0,30.11,North,355,0.0,7.0,59,0.00,,,0.00,weatherlink.com 1.10,2013-08-14 22:43:00,
2013-08-14 17:58:00,72.0,56.0,30.11,North,355,2.0,7.0,57,0.00,,,0.00,weatherlink.com 1.10,2013-08-14 22:58:00,
2013-08-14 18:13:00,71.9,58.0,30.11,North,360,3.0,5.0,61,0.00,,,0.00,weatherlink.com 1.10,2013-08-14 23:13:00,
2013-08-14 18:28:00,71.4,56.0,30.11,North,360,1.0,8.0,59,0.00,,,0.00,weatherlink.com 1.10,2013-08-14 23:28:00,
2013-08-14 18:43:00,70.5,56.0,30.10,North,355,3.0,5.0,60,0.00,,,0.00,weatherlink.com 1.10,2013-08-14 23:43:00,
2013-08-14 18:58:00,69.8,56.0,30.10,North,5,0.0,4.0,62,0.00,,,0.00,weatherlink.com 1.10,2013-08-14 23:58:00,
2013-08-14 19:13:00,68.8,56.0,30.10,North,5,3.0,4.0,65,0.00,,,0.00,weatherlink.com 1.10,2013-08-15 00:13:00,
2013-08-14 19:28:00,67.6,57.0,30.10,North,5,0.0,2.0,68,0.00,,,0.00,weatherlink.com 1.10,2013-08-15 00:28:00,
2013-08-14 19:44:00,65.9,57.0,30.11,North,5,0.0,1.0,73,0.00,,,0.00,weatherlink.com 1.10,2013-08-15 00:44:00,
2013-08-14 19:59:00,63.8,57.0,30.10,North,5,0.0,0.0,78,0.00,,,0.00,weatherlink.com 1.10,2013-08-15 00:59:00,
2013-08-14 20:14:00,62.4,56.0,30.11,North,5,0.0,1.0,80,0.00,,,0.00,weatherlink.com 1.10,2013-08-15 01:14:00,
2013-08-14 20:29:00,60.8,56.0,30.11,North,5,0.0,0.0,84,0.00,,,0.00,weatherlink.com 1.10,2013-08-15 01:29:00,
2013-08-14 20:44:00,60.0,56.0,30.11,North,5,0.0,0.0,85,0.00,,,0.00,weatherlink.com 1.10,2013-08-15 01:44:00,
2013-08-14 20:59:00,59.7,56.0,30.11,North,5,0.0,0.0,86,0.00,,,0.00,weatherlink.com 1.10,2013-08-15 01:59:00,
2013-08-14 21:14:00,59.6,55.0,30.11,North,5,0.0,1.0,85,0.00,,,0.00,weatherlink.com 1.10,2013-08-15 02:14:00,
2013-08-14 21:29:00,58.8,55.0,30.12,North,5,0.0,1.0,86,0.00,,,0.00,weatherlink.com 1.10,2013-08-15 02:29:00,
2013-08-14 21:44:00,58.9,55.0,30.12,North,5,0.0,0.0,86,0.00,,,0.00,weatherlink.com 1.10,2013-08-15 02:44:00,
2013-08-14 21:59:00,58.7,55.0,30.13,North,5,0.0,1.0,86,0.00,,,0.00,weatherlink.com 1.10,2013-08-15 02:59:00,
2013-08-14 22:14:00,58.6,55.0,30.14,North,5,0.0,0.0,86,0.00,,,0.00,weatherlink.com 1.10,2013-08-15 03:14:00,
2013-08-14 22:29:00,58.1,54.0,30.14,North,5,0.0,0.0,87,0.00,,,0.00,weatherlink.com 1.10,2013-08-15 03:29:00,
2013-08-14 22:44:00,57.9,54.0,30.14,North,5,0.0,0.0,87,0.00,,,0.00,weatherlink.com 1.10,2013-08-15 03:44:00,
2013-08-14 22:59:00,57.3,54.0,30.14,North,5,0.0,0.0,88,0.00,,,0.00,weatherlink.com 1.10,2013-08-15 03:59:00,
2013-08-14 23:15:00,56.7,54.0,30.14,North,5,0.0,0.0,89,0.00,,,0.00,weatherlink.com 1.10,2013-08-15 04:15:00,
2013-08-14 23:30:00,56.4,53.0,30.13,North,5,0.0,0.0,89,0.00,,,0.00,weatherlink.com 1.10,2013-08-15 04:30:00,
2013-08-14 23:45:00,56.2,53.0,30.13,North,5,0.0,0.0,90,0.00,,,0.00,weatherlink.com 1.10,2013-08-15 04:45:00,